Content
SEND FEEDBACK

Daily
Averages
Monthly
Summary
Finland

HELSINKI, FINLAND


Home > Europe > Finland
Elevation: 184 feet     Latitude: 60 19N     Longitude: 024 58E

WEATHER
 
SELECT A DAY
Number of Records: 312,507;   Date Range: 7/1/96 - 9/17/14
 
SHARE

PRINT THIS DATA

[ ← Previous Day ]
WEATHER ALMANAC - JANUARY 31, 2013
[ Next Day → ]
[ °C ]   °F
Weather ElementAverageHighLow
Temperature33.8 °F34 °F (2:00 am)33 °F (8:00 pm)
Dewpoint33.6 °F34 °F (8:00 am)32 °F (5:50 am)
Humidity99.3 %100 % (12:50 am)93 % (5:50 am)
Barometer29.00 in29.03 in (2:00 am)28.97 in (8:50 pm)
Wind Speed9.9 mph12.7 mph (4:20 am)
Weather ElementAverage
Visibility3.9 mi
Wind DirectionS (175.7 °)

Weather ElementTotal
Precipitation---
Heating Degree Days31.5 (Base 65)
Averaged from 51 records on January 31, 2013
WEATHER CONDITIONS BREAKOUT
WIND DIRECTION BREAKOUT
WEATHER BY HOUR - JANUARY 31, 2013
[ °C ]   °F
Local TimeTemperatureDewpointHumidityBarometerVisibilityWind DirectionWind SpeedGust SpeedPrecipitationEventsConditions
12:50 AM33.8 °F33.8 °F100 %29.00 in0.4 miSouth (180°)9.2 mphFogLight Drizzle
1:20 AM33.8 °F33.8 °F100 %29.00 in0.9 miSouth (180°)9.2 mphMostly Cloudy
1:50 AM33.8 °F33.8 °F100 %29.00 in5.0 miSouth (190°)8.1 mphMostly Cloudy
2:00 AM34.0 °F33.0 °F97 %29.03 in5.0 miSSW (210°)11.2 mphFogLight Fog
2:20 AM33.8 °F33.8 °F100 %29.00 in5.6 miSouth (180°)9.2 mphMostly Cloudy
2:50 AM33.8 °F33.8 °F100 %29.00 in1.6 miSouth (190°)9.2 mphMostly Cloudy
3:20 AM33.8 °F33.8 °F100 %29.00 in3.1 miSouth (180°)10.4 mphMostly Cloudy
3:50 AM33.8 °F33.8 °F100 %29.00 in5.6 miSouth (180°)11.5 mphMostly Cloudy
4:20 AM33.8 °F33.8 °F100 %29.00 in5.6 miSouth (180°)12.7 mphMostly Cloudy
4:50 AM33.8 °F33.8 °F100 %29.00 in6.2 miSouth (190°)12.7 mphMostly Cloudy
5:20 AM33.8 °F33.8 °F100 %29.00 in6.2 miSouth (190°)12.7 mphMostly Cloudy
5:50 AM33.8 °F32.0 °F93 %29.00 in6.2 miSouth (190°)12.7 mphMostly Cloudy
6:20 AM33.8 °F33.8 °F100 %29.00 in6.2 miSouth (180°)10.4 mphMostly Cloudy
6:50 AM33.8 °F32.0 °F93 %29.00 in6.2 miSouth (180°)9.2 mphMostly Cloudy
7:20 AM33.8 °F33.8 °F100 %29.00 in6.2 miSouth (180°)11.5 mphMostly Cloudy
7:50 AM33.8 °F33.8 °F100 %29.00 in6.2 miSouth (180°)11.5 mphMostly Cloudy
8:00 AM34.0 °F34.0 °F98 %29.03 in6.0 miSouth (190°)11.2 mphOvercast
8:20 AM33.8 °F33.8 °F100 %29.00 in6.2 miSouth (180°)11.5 mphMostly Cloudy
8:50 AM33.8 °F33.8 °F100 %29.00 in6.2 miSouth (170°)11.5 mphMostly Cloudy
9:20 AM33.8 °F33.8 °F100 %29.00 in6.2 miSouth (170°)12.7 mphMostly Cloudy
9:50 AM33.8 °F33.8 °F100 %29.00 in6.2 miSouth (180°)12.7 mphMostly Cloudy
10:20 AM33.8 °F33.8 °F100 %29.00 in4.3 miSouth (170°)11.5 mphMostly Cloudy
10:50 AM33.8 °F33.8 °F100 %29.00 in3.1 miSouth (180°)11.5 mphLight Drizzle
11:20 AM33.8 °F33.8 °F100 %29.00 in3.1 miSouth (170°)12.7 mphMostly Cloudy
11:50 AM33.8 °F33.8 °F100 %29.00 in3.1 miSouth (180°)12.7 mphMostly Cloudy
12:20 PM33.8 °F33.8 °F100 %29.00 in3.7 miSouth (180°)10.4 mphMostly Cloudy
12:50 PM33.8 °F33.8 °F100 %29.00 in3.7 miSouth (180°)11.5 mphMostly Cloudy
1:20 PM33.8 °F33.8 °F100 %29.00 in6.2 miSouth (170°)10.4 mphMostly Cloudy
1:50 PM33.8 °F33.8 °F100 %29.00 in5.6 miSouth (170°)10.4 mphMostly Cloudy
2:00 PM34.0 °F34.0 °F99 %29.03 in6.0 miSouth (190°)11.2 mphPartly Cloudy
2:20 PM33.8 °F33.8 °F100 %29.00 in4.3 miSSE (160°)8.1 mphMostly Cloudy
2:50 PM33.8 °F33.8 °F100 %29.00 in3.7 miSouth (170°)9.2 mphMostly Cloudy
3:20 PM33.8 °F33.8 °F100 %29.00 in2.5 miSSE (160°)10.4 mphOvercast
3:50 PM33.8 °F33.8 °F100 %29.00 in2.2 miSouth (170°)8.1 mphOvercast
4:20 PM33.8 °F33.8 °F100 %29.00 in2.2 miSouth (170°)9.2 mphOvercast
4:50 PM33.8 °F33.8 °F100 %29.00 in2.2 miSouth (180°)9.2 mphOvercast
5:20 PM33.8 °F33.8 °F100 %29.00 in0.7 miSouth (170°)8.1 mphLight Drizzle
5:50 PM33.8 °F33.8 °F100 %29.00 in0.7 miSSE (160°)6.9 mphLight Drizzle
6:20 PM33.8 °F33.8 °F100 %29.00 in0.7 miSSE (150°)8.1 mphRainLight Rain
6:50 PM33.8 °F33.8 °F100 %29.00 in0.7 miSSE (160°)8.1 mphLight Drizzle
7:20 PM33.8 °F33.8 °F100 %29.00 in3.1 miSouth (170°)8.1 mphRainLight Rain
7:50 PM33.8 °F32.0 °F93 %29.00 in3.1 miSSE (160°)6.9 mphRainLight Rain
8:00 PM33.0 °F33.0 °F98 %29.02 in3.0 miSouth (180°)8.9 mphRainLight Rain
8:20 PM33.8 °F33.8 °F100 %29.00 in2.8 miSSE (150°)8.1 mphLight Drizzle
8:50 PM33.8 °F32.0 °F93 %28.97 in2.8 miSSE (160°)9.2 mphLight Drizzle
9:20 PM33.8 °F33.8 °F100 %28.97 in2.8 miSSE (160°)8.1 mphLight Drizzle
9:50 PM33.8 °F33.8 °F100 %28.97 in1.9 miSouth (170°)6.9 mphLight Drizzle
10:20 PM33.8 °F33.8 °F100 %28.97 in2.8 miSouth (170°)8.1 mphMostly Cloudy
10:50 PM33.8 °F33.8 °F100 %29.00 in4.3 miSouth (190°)8.1 mphMostly Cloudy
11:20 PM33.8 °F33.8 °F100 %29.00 in2.5 miSouth (180°)5.8 mphRainLight Rain
11:50 PM33.8 °F33.8 °F100 %29.00 in1.9 miSouth (180°)5.8 mphRainLight Rain
Hourly data recorded from EFHK, located miles away from Helsinki, Finland







STORIES FROM OUR PARTNERS